Bad Axe, MI

3:37 AM EDT on September 19, 2019 (GMT -0400)
Huron County Memorial

Weather History for KBAX - August, 2019

Change the Weather History Date:

Saturday, August 17, 2019

  Actual Average (KP58) Record (KP58)
Temperature  
Mean Temperature 73 °F -  
Max Temperature 81 °F 72 °F 87 °F (2015)
Min Temperature 65 °F 58 °F 53 °F (1996)
Cooling Degree Days 8    
Growing Degree Days 23 (Base 50)    
Moisture  
Dew Point 63 °F    
Average Humidity 75    
Maximum Humidity 94    
Minimum Humidity 45    
Precipitation  
Precipitation 0.00 in - - ()
Sea Level Pressure  
Sea Level Pressure 29.89 in    
Wind  
Wind Speed 6 mph ()    
Max Wind Speed 14 mph    
Max Gust Speed 22 mph    
Visibility 10.0 miles    
Events Rain    
Averages and records for this station are not official NWS values.
T = Trace of Precipitation, MM = Missing Value Source: Averaged Metar Reports

Daily Weather History Graph

Daily Weather History Graph

Search for Another Location

Airport or City:

Astronomy

Aug. 17, 2019 Rise Set
Actual Time 6:38 AM EDT 8:33 PM EDT
Civil Twilight 6:07 AM EDT 9:03 PM EDT
Nautical Twilight 5:29 AM EDT 9:41 PM EDT
Astronomical Twilight 4:48 AM EDT 10:22 PM EDT
Moon 9:57 PM EDT (8/17) 8:27 AM EDT (8/17)
Length of Visible Light 14h 56m
Length of Day
13h 54m
Waning Gibbous, 96% of the Moon is Illuminated
Aug 17
Waning Gibbous
Aug 23
Last Quarter
Aug 30
New
Sep 5
First Quarter
Sep 14
Full

Hourly Weather History & Observations

Time (EDT) Temp. Heat Index Dew Point Humidity Pressure Visibility Wind Dir Wind Speed Gust Speed Precip Events Conditions
12:16 AM 65.5 °F - 60.8 °F 85% 29.89 in 10.0 mi Calm Calm - N/A   Clear
12:35 AM 65.8 °F - 61.0 °F 84% 29.89 in 10.0 mi SSE 4.6 mph - N/A   Mostly Cloudy
12:59 AM 65.7 °F - 61.2 °F 85% 29.89 in 10.0 mi SSE 5.8 mph - N/A   Clear
1:17 AM 66.2 °F - 61.5 °F 85% 29.89 in 10.0 mi SSE 6.9 mph - N/A   Scattered Clouds
1:36 AM 66.4 °F - 61.7 °F 85% 29.88 in 10.0 mi SSE 4.6 mph - N/A   Scattered Clouds
1:55 AM 67.3 °F - 61.9 °F 83% 29.88 in 10.0 mi SSE 4.6 mph - N/A   Mostly Cloudy
2:15 AM 68.0 °F - 62.1 °F 81% 29.87 in 10.0 mi SE 8.1 mph - N/A   Overcast
2:38 AM 68.4 °F - 62.6 °F 82% 29.86 in 10.0 mi SE 10.4 mph - N/A   Overcast
2:56 AM 68.0 °F - 62.6 °F 83% 29.86 in 10.0 mi SE 10.4 mph - N/A   Mostly Cloudy
3:35 AM 67.6 °F - 63.7 °F 87% 29.85 in 7.0 mi South 9.2 mph 19.6 mph N/A Rain Light Rain
3:59 AM 67.5 °F - 64.0 °F 89% 29.85 in 10.0 mi SSE 6.9 mph - N/A   Overcast
4:17 AM 67.1 °F - 63.9 °F 89% 29.84 in 10.0 mi South 8.1 mph - N/A   Mostly Cloudy
4:36 AM 67.1 °F - 63.9 °F 89% 29.83 in 10.0 mi South 8.1 mph 18.4 mph N/A   Clear
4:55 AM 66.9 °F - 63.9 °F 90% 29.83 in 10.0 mi South 8.1 mph - N/A   Clear
5:15 AM 66.6 °F - 63.7 °F 90% 29.83 in 10.0 mi SSW 5.8 mph - N/A   Clear
5:38 AM 66.9 °F - 63.9 °F 90% 29.84 in 10.0 mi SW 6.9 mph - N/A   Clear
5:56 AM 66.4 °F - 63.7 °F 91% 29.84 in 10.0 mi SW 5.8 mph - N/A   Clear
6:16 AM 65.5 °F - 63.5 °F 93% 29.84 in 10.0 mi SSW 3.5 mph - N/A   Scattered Clouds
6:35 AM 65.3 °F - 63.1 °F 93% 29.84 in 10.0 mi South 5.8 mph - N/A   Scattered Clouds
6:59 AM 65.3 °F - 63.5 °F 94% 29.84 in 10.0 mi South 4.6 mph - N/A   Mostly Cloudy
7:17 AM 65.5 °F - 63.7 °F 94% 29.84 in 10.0 mi South 4.6 mph - N/A   Mostly Cloudy
7:36 AM 65.7 °F - 63.9 °F 94% 29.85 in 10.0 mi SSW 5.8 mph - N/A   Scattered Clouds
7:55 AM 65.7 °F - 63.9 °F 94% 29.86 in 10.0 mi South 4.6 mph - N/A   Scattered Clouds
8:15 AM 65.3 °F - 63.5 °F 94% 29.87 in 10.0 mi SW 6.9 mph - N/A   Scattered Clouds
8:38 AM 67.1 °F - 64.4 °F 91% 29.90 in 10.0 mi WSW 6.9 mph - N/A   Mostly Cloudy
8:56 AM 67.5 °F - 64.6 °F 90% 29.90 in 10.0 mi WSW 6.9 mph - N/A   Mostly Cloudy
9:16 AM 68.9 °F - 65.3 °F 88% 29.90 in 10.0 mi West 8.1 mph - N/A   Scattered Clouds
9:36 AM 69.4 °F - 65.1 °F 86% 29.90 in 10.0 mi West 10.4 mph - N/A   Mostly Cloudy
9:59 AM 70.3 °F - 64.9 °F 83% 29.90 in 10.0 mi West 10.4 mph - N/A   Mostly Cloudy
10:17 AM 70.5 °F - 64.8 °F 82% 29.91 in 10.0 mi West 9.2 mph - N/A   Mostly Cloudy
10:36 AM 71.6 °F - 64.6 °F 78% 29.90 in 10.0 mi West 8.1 mph - N/A   Mostly Cloudy
10:56 AM 72.0 °F - 64.4 °F 77% 29.89 in 10.0 mi West 9.2 mph - N/A   Mostly Cloudy
11:20 AM 71.8 °F - 63.3 °F 75% 29.91 in 10.0 mi West 13.8 mph 18.4 mph N/A   Mostly Cloudy
11:38 AM 73.9 °F - 64.0 °F 71% 29.90 in 10.0 mi West 10.4 mph 16.1 mph N/A   Mostly Cloudy
11:56 AM 75.2 °F - 64.0 °F 68% 29.90 in 10.0 mi West 12.7 mph 18.4 mph N/A   Mostly Cloudy
12:16 PM 75.6 °F - 63.3 °F 66% 29.91 in 10.0 mi West 13.8 mph 21.9 mph N/A   Mostly Cloudy
12:36 PM 75.9 °F - 63.1 °F 64% 29.91 in 10.0 mi West 13.8 mph 20.7 mph N/A   Mostly Cloudy
12:59 PM 76.1 °F - 62.1 °F 62% 29.91 in 10.0 mi WNW 11.5 mph 19.6 mph N/A   Scattered Clouds
1:17 PM 77.5 °F - 62.1 °F 59% 29.91 in 10.0 mi WNW 12.7 mph 19.6 mph N/A   Scattered Clouds
1:35 PM 77.7 °F - 61.7 °F 58% 29.91 in 10.0 mi West 12.7 mph 19.6 mph N/A   Clear
1:55 PM 78.6 °F - 62.1 °F 57% 29.91 in 10.0 mi West 11.5 mph 17.3 mph N/A   Scattered Clouds
2:15 PM 79.9 °F - 61.0 °F 52% 29.91 in 10.0 mi West 10.4 mph 18.4 mph N/A   Scattered Clouds
2:19 PM 79.3 °F - 61.2 °F 54% 29.91 in 10.0 mi West 10.4 mph 19.6 mph N/A   Scattered Clouds
2:38 PM 80.4 °F 81.3 °F 60.6 °F 51% 29.90 in 10.0 mi WNW 11.5 mph - N/A   Clear
2:56 PM 79.9 °F - 59.5 °F 50% 29.91 in 10.0 mi WSW 10.4 mph 17.3 mph N/A   Clear
3:15 PM 80.1 °F 80.9 °F 59.9 °F 50% 29.91 in 10.0 mi WSW 11.5 mph 20.7 mph N/A   Scattered Clouds
3:35 PM 80.8 °F 81.0 °F 57.7 °F 45% 29.91 in 10.0 mi West 9.2 mph 17.3 mph N/A   Scattered Clouds
3:59 PM 80.4 °F 81.1 °F 59.9 °F 49% 29.91 in 10.0 mi West 10.4 mph - N/A   Clear
4:17 PM 80.8 °F 81.4 °F 60.1 °F 49% 29.91 in 10.0 mi WSW 9.2 mph - N/A   Scattered Clouds
4:35 PM 80.8 °F 81.5 °F 60.4 °F 50% 29.91 in 10.0 mi West 10.4 mph - N/A   Scattered Clouds
4:55 PM 81.5 °F 82.1 °F 60.4 °F 49% 29.91 in 10.0 mi WSW 6.9 mph - N/A   Clear
5:15 PM 81.3 °F 82.1 °F 61.0 °F 50% 29.90 in 10.0 mi West 6.9 mph - N/A   Clear
5:20 PM 81.1 °F 81.9 °F 60.6 °F 50% 29.89 in 10.0 mi WNW 6.9 mph - N/A   Clear
5:38 PM 80.6 °F 81.5 °F 61.2 °F 51% 29.89 in 10.0 mi WSW 4.6 mph - N/A   Clear
5:56 PM 81.0 °F 81.8 °F 61.2 °F 51% 29.89 in 10.0 mi West 6.9 mph - N/A   Clear
6:15 PM 80.6 °F 81.4 °F 60.3 °F 50% 29.89 in 10.0 mi WNW 6.9 mph - N/A   Clear
6:35 PM 80.4 °F 81.3 °F 60.6 °F 51% 29.89 in 10.0 mi West 5.8 mph - N/A   Clear
6:59 PM 79.7 °F - 60.3 °F 51% 29.89 in 10.0 mi West 6.9 mph - N/A   Clear
7:17 PM 77.9 °F - 60.8 °F 56% 29.88 in 10.0 mi Calm Calm - N/A   Clear
7:35 PM 77.2 °F - 61.9 °F 59% 29.89 in 10.0 mi Calm Calm - N/A   Clear
7:55 PM 74.5 °F - 62.8 °F 67% 29.89 in 10.0 mi SSE 4.6 mph - N/A   Clear
8:15 PM 71.8 °F - 64.0 °F 77% 29.89 in 10.0 mi Calm Calm - N/A   Clear
8:20 PM 72.0 °F - 63.9 °F 76% 29.89 in 10.0 mi Calm Calm - N/A   Clear
8:38 PM 71.8 °F - 64.6 °F 78% 29.90 in 10.0 mi ESE 4.6 mph - N/A   Clear
8:56 PM 71.1 °F - 66.2 °F 85% 29.91 in 10.0 mi SE 5.8 mph - N/A   Scattered Clouds
9:15 PM 70.7 °F - 66.2 °F 86% 29.91 in 10.0 mi Calm Calm - N/A   Mostly Cloudy
9:35 PM 69.8 °F - 65.7 °F 87% 29.91 in 10.0 mi SSE 3.5 mph - N/A   Scattered Clouds
9:59 PM 69.8 °F - 66.2 °F 88% 29.91 in 10.0 mi Calm Calm - N/A   Clear
10:17 PM 69.1 °F - 65.7 °F 89% 29.91 in 10.0 mi Calm Calm - N/A   Clear
10:35 PM 68.0 °F - 64.8 °F 89% 29.90 in 10.0 mi Calm Calm - N/A   Clear
10:55 PM 67.3 °F - 64.4 °F 90% 29.90 in 10.0 mi Calm Calm - N/A   Clear
11:15 PM 66.4 °F - 63.5 °F 90% 29.91 in 10.0 mi Calm Calm - N/A   Clear
11:38 PM 66.9 °F - 63.9 °F 90% 29.91 in 10.0 mi Calm Calm - N/A   Scattered Clouds
11:56 PM 67.5 °F - 63.5 °F 87% 29.92 in 10.0 mi Calm Calm - N/A   Scattered Clouds